GW4419 Weather Reports


time (UTC)temp
F
wind
direction
speed
knots
gust
knots
rain 1hr
in
rain 24hr
in
rain mn
in
humidity
%
barometer
mb
20260906165430 96 291 0.9 1.7 0.00 0.00 0.00 48 1018.4
20260906164926 96 257 0.0 0.0 0.00 0.00 0.00 46 1018.3
20260906164424 96 216 0.9 0.9 0.00 0.00 0.00 46 1018.3
20260906163921 96 263 0.0 0.9 0.00 0.00 0.00 50 1018.6
20260906163416 95 164 0.9 0.9 0.00 0.00 0.00 51 1018.4
20260906162915 95 270 0.9 0.9 0.00 0.00 0.00 52 1018.5
20260906162413 96 289 0.9 0.9 0.00 0.00 0.00 50 1018.7
20260906161908 95 232 0.0 0.0 0.00 0.00 0.00 52 1018.6
20260906161408 96 262 0.0 0.0 0.00 0.00 0.00 52 1018.5
20260906160907 95 307 0.9 1.7 0.00 0.00 0.00 53 1018.3
20260906160400 94 274 0.0 0.0 0.00 0.00 0.00 54 1018.4
20260906155859 94 214 0.0 0.0 0.00 0.00 0.00 56 1018.6
20260906155352 93 266 0.9 0.9 0.00 0.00 0.00 56 1018.4
20260906154849 93 58 0.0 0.9 0.00 0.00 0.00 56 1018.5
20260906154343 94 218 0.0 0.9 0.00 0.00 0.00 59 1018.2
20260906153842 92 0 0.9 0.9 0.00 0.00 0.00 58 1018.4
20260906153341 91 190 1.7 1.7 0.00 0.00 0.00 59 1018.5
20260906152837 91 314 0.9 1.7 0.00 0.00 0.00 60 1018.4
20260906152331 91 260 0.0 0.0 0.00 0.00 0.00 58 1018.1
20260906151825 90 271 0.0 0.0 0.00 0.00 0.00 61 1018.4
20260906151321 91 241 0.0 0.9 0.00 0.00 0.00 63 1018.2
20260906150816 91 193 0.0 0.0 0.00 0.00 0.00 61 1018.1
20260906150312 91 243 0.0 0.9 0.00 0.00 0.00 62 1018.1
20260906145811 90 98 0.9 0.9 0.00 0.00 0.00 63 1018.1
20260906145309 90 222 0.0 0.0 0.00 0.00 0.00 65 1018.2
20260906144804 89 28 0.0 0.0 0.00 0.00 0.00 66 1018.1
20260906144259 89 125 0.0 0.9 0.00 0.00 0.00 66 1018.3
20260906143759 89 87 0.0 0.0 0.00 0.00 0.00 70 1018.2
20260906143256 89 334 0.0 0.9 0.00 0.00 0.00 70 1018.3
20260906142755 87 282 0.0 0.0 0.00 0.00 0.00 71 1018.3
20260906142252 88 309 0.0 0.0 0.00 0.00 0.00 72 1018.2
20260906141750 88 329 0.0 0.0 0.00 0.00 0.00 71 1018.3
20260906141245 87 327 0.0 0.0 0.00 0.00 0.00 72 1018.2
20260906140744 86 294 0.0 0.9 0.00 0.00 0.00 74 1018.3
20260906140239 86 260 0.0 0.0 0.00 0.00 0.00 73 1018.1
20260906135735 86 93 0.0 0.0 0.00 0.00 0.00 75 1018.2
20260906135232 84 110 0.0 0.0 0.00 0.00 0.00 76 1018.0
20260906134727 83 110 0.0 0.0 0.00 0.00 0.00 81 1018.0
20260906134222 81 110 0.0 0.0 0.00 0.00 0.00 83 1017.8
20260906133718 80 110 0.0 0.0 0.00 0.00 0.00 84 1017.8
20260906133213 77 109 0.0 0.0 0.00 0.00 0.00 87 1018.0
20260906132708 76 110 0.0 0.0 0.00 0.00 0.00 89 1018.0
20260906132204 75 110 0.0 0.0 0.00 0.00 0.00 91 1017.7
20260906131659 75 110 0.0 0.0 0.00 0.00 0.00 92 1017.7
20260906131154 74 110 0.0 0.0 0.00 0.00 0.00 93 1017.7
20260906130649 73 110 0.0 0.0 0.00 0.00 0.00 94 1017.8
20260906130145 73 110 0.0 0.0 0.00 0.00 0.00 94 1017.7
20260906125642 73 110 0.0 0.0 0.00 0.00 0.00 95 1017.6
20260906125141 73 111 0.0 0.0 0.00 0.00 0.00 95 1017.8
20260906124637 72 110 0.0 0.0 0.00 0.00 0.00 96 1017.6
20260906124132 71 110 0.0 0.0 0.00 0.00 0.00 96 1017.7
20260906123631 72 110 0.0 0.0 0.00 0.00 0.00 96 1017.5
20260906123126 71 110 0.0 0.0 0.00 0.00 0.00 96 1017.5
20260906122626 71 111 0.0 0.0 0.00 0.00 0.00 96 1017.4
20260906122121 71 111 0.0 0.0 0.00 0.00 0.00 96 1017.2
20260906121617 71 110 0.0 0.0 0.00 0.00 0.00 96 1017.5
20260906121114 71 110 0.0 0.0 0.00 0.00 0.00 96 1017.4
20260906120609 71 110 0.0 0.0 0.00 0.00 0.00 96 1017.4
20260906120107 71 111 0.0 0.0 0.00 0.00 0.00 97 1017.3
20260906115606 70 110 0.0 0.0 0.00 0.00 0.00 97 1017.3
20260906115102 70 111 0.0 0.0 0.00 0.00 0.00 97 1017.2
20260906114601 70 111 0.0 0.0 0.00 0.00 0.00 97 1017.0
20260906114057 70 111 0.0 0.0 0.00 0.00 0.00 97 1017.0
20260906113556 70 111 0.0 0.0 0.00 0.00 0.00 97 1017.2
20260906113051 70 111 0.0 0.0 0.00 0.00 0.00 97 1017.1
20260906112546 70 111 0.0 0.0 0.00 0.00 0.00 97 1017.1
20260906112042 70 111 0.0 0.0 0.00 0.00 0.00 97 1017.2
20260906111541 71 111 0.0 0.0 0.00 0.00 0.00 97 1017.1
20260906111037 70 111 0.0 0.0 0.00 0.00 0.00 97 1016.7
20260906110537 70 111 0.0 0.0 0.00 0.00 0.00 96 1017.0
20260906110036 70 111 0.0 0.0 0.00 0.00 0.00 96 1017.0
20260906105531 71 111 0.0 0.0 0.00 0.00 0.00 96 1016.9
20260906105027 71 111 0.0 0.0 0.00 0.00 0.00 96 1017.0
20260906104525 70 111 0.0 0.0 0.00 0.00 0.00 96 1016.9
20260906104021 70 111 0.0 0.0 0.00 0.00 0.00 96 1016.9
20260906103519 70 111 0.0 0.0 0.00 0.00 0.00 96 1017.1
20260906103014 70 111 0.0 0.0 0.00 0.00 0.00 96 1016.7
20260906102514 71 111 0.0 0.0 0.00 0.00 0.00 96 1016.8
20260906102014 71 111 0.0 0.0 0.00 0.00 0.00 96 1016.8
20260906101509 70 111 0.0 0.0 0.00 0.00 0.00 96 1016.6
20260906101004 71 111 0.0 0.0 0.00 0.00 0.00 96 1016.6
20260906100500 71 111 0.0 0.0 0.00 0.00 0.00 96 1016.7
20260906100000 71 111 0.0 0.0 0.00 0.00 0.00 96 1016.7
20260906095455 71 111 0.0 0.0 0.00 0.00 0.00 96 1016.6
20260906094950 71 111 0.0 0.0 0.00 0.00 0.00 96 1016.5
20260906094443 71 111 0.0 0.0 0.00 0.00 0.00 96 1016.5
20260906093939 71 111 0.0 0.0 0.00 0.00 0.00 96 1016.5
20260906093436 71 111 0.0 0.0 0.00 0.00 0.00 96 1016.4
20260906092936 71 111 0.0 0.0 0.00 0.00 0.00 96 1016.3
20260906092435 71 111 0.0 0.0 0.00 0.00 0.00 96 1016.5
20260906091931 71 111 0.0 0.0 0.00 0.00 0.00 96 1016.5
20260906091426 71 111 0.0 0.0 0.00 0.00 0.00 96 1016.3
20260906090923 70 111 0.0 0.0 0.00 0.00 0.00 96 1016.4
20260906090418 71 110 0.0 0.0 0.00 0.00 0.00 97 1016.2
20260906085912 72 110 0.0 0.0 0.00 0.00 0.00 98 1016.2
20260906085411 71 110 0.0 0.0 0.00 0.00 0.00 98 1016.2
20260906084905 70 111 0.0 0.0 0.00 0.00 0.00 98 1016.1
20260906084400 71 111 0.0 0.0 0.00 0.00 0.00 98 1016.1
20260906083854 71 111 0.0 0.0 0.00 0.00 0.00 98 1016.2
20260906083350 71 111 0.0 0.0 0.00 0.00 0.00 99 1016.0
20260906082849 70 111 0.0 0.0 0.00 0.00 0.00 99 1016.0
20260906082345 71 111 0.0 0.0 0.00 0.00 0.00 99 1016.1
20260906081841 70 111 0.0 0.0 0.00 0.00 0.00 99 1015.9
20260906081336 71 111 0.0 0.0 0.00 0.00 0.00 99 1015.9
20260906080832 71 111 0.0 0.0 0.00 0.00 0.00 99 1016.2
20260906080328 71 111 0.0 0.0 0.00 0.00 0.00 99 1016.2
20260906075827 71 111 0.0 0.0 0.00 0.00 0.00 99 1016.2
20260906075328 71 111 0.0 0.0 0.00 0.00 0.00 99 1016.3
20260906074823 70 111 0.0 0.0 0.00 0.00 0.00 99 1016.2
20260906074323 71 111 0.0 0.0 0.00 0.00 0.00 99 1016.2
20260906073821 71 111 0.0 0.0 0.00 0.00 0.00 99 1016.3
20260906073316 71 111 0.0 0.0 0.00 0.00 0.00 99 1016.3
20260906072813 71 111 0.0 0.0 0.00 0.00 0.00 99 1016.2
20260906072308 71 111 0.0 0.0 0.00 0.00 0.00 99 1016.3
20260906071804 71 111 0.0 0.0 0.00 0.00 0.00 99 1016.4
20260906071304 71 111 0.0 0.0 0.00 0.00 0.00 99 1016.4
20260906070801 71 111 0.0 0.0 0.00 0.00 0.00 99 1016.3
20260906070256 71 111 0.0 0.0 0.00 0.00 0.00 99 1016.6
20260906065755 71 111 0.0 0.0 0.00 0.00 0.00 99 1016.5
20260906065251 71 111 0.0 0.0 0.00 0.00 0.00 99 1016.7
20260906064747 71 111 0.0 0.0 0.00 0.00 0.00 99 1016.5
20260906064242 71 111 0.0 0.0 0.00 0.00 0.00 99 1016.6
20260906063737 71 111 0.0 0.0 0.00 0.00 0.00 99 1016.6
20260906063233 71 111 0.0 0.0 0.00 0.00 0.00 99 1016.6
20260906062728 71 111 0.0 0.0 0.00 0.00 0.00 99 1016.7
20260906062227 72 111 0.0 0.0 0.00 0.00 0.00 99 1016.7
20260906061723 72 111 0.0 0.0 0.00 0.00 0.00 99 1016.6
20260906061219 72 111 0.0 0.0 0.00 0.00 0.00 99 1016.7
20260906060714 72 111 0.0 0.0 0.00 0.00 0.00 99 1016.8
20260906060212 72 111 0.0 0.0 0.00 0.00 0.00 99 1016.7
20260906055707 72 111 0.0 0.0 0.00 0.00 0.00 99 1016.7
20260906055202 71 111 0.0 0.0 0.00 0.00 0.00 99 1016.9
20260906054652 72 111 0.0 0.0 0.00 0.00 0.00 99 1016.8
20260906054151 72 111 0.0 0.0 0.00 0.00 0.00 99 1016.8
20260906053648 72 111 0.0 0.0 0.00 0.00 0.00 99 1016.8
20260906053143 72 111 0.0 0.0 0.00 0.00 0.00 99 1016.8
20260906052639 71 111 0.0 0.0 0.00 0.00 0.00 99 1016.6
20260906052135 71 111 0.0 0.0 0.00 0.00 0.00 99 1016.6
20260906051631 72 111 0.0 0.0 0.00 0.00 0.00 99 1016.8
20260906051126 72 111 0.0 0.0 0.00 0.00 0.00 99 1016.8
20260906050622 72 111 0.0 0.0 0.00 0.00 0.00 99 1016.7
20260906050122 72 111 0.0 0.0 0.00 0.00 0.00 99 1016.7
20260906045620 72 111 0.0 0.0 0.00 0.12 0.12 99 1016.8
20260906045115 72 111 0.0 0.0 0.00 0.12 0.12 99 1016.8
20260906044611 72 111 0.0 0.0 0.00 0.12 0.12 99 1016.6
20260906044106 72 111 0.0 0.0 0.00 0.12 0.12 99 1016.6
20260906043603 72 111 0.0 0.0 0.00 0.12 0.12 99 1016.7
20260906043058 71 111 0.0 0.0 0.00 0.12 0.12 99 1016.9
20260906042557 71 111 0.0 0.0 0.00 0.12 0.12 99 1016.8
20260906042051 71 111 0.0 0.0 0.00 0.12 0.12 99 1016.9
20260906041548 72 111 0.0 0.0 0.00 0.12 0.12 99 1016.8
20260906041043 72 111 0.0 0.0 0.00 0.12 0.12 99 1016.9
20260906040538 71 111 0.0 0.0 0.00 0.12 0.12 99 1016.8
20260906040033 71 111 0.0 0.0 0.00 0.12 0.12 99 1016.8
20260906035528 72 111 0.0 0.0 0.00 0.12 0.12 99 1017.0
20260906035024 72 111 0.0 0.0 0.00 0.12 0.12 99 1016.7
20260906034518 72 111 0.0 0.0 0.00 0.12 0.12 99 1016.7
20260906034013 72 111 0.0 0.0 0.00 0.12 0.12 99 1016.6
20260906033508 72 111 0.0 0.0 0.00 0.12 0.12 99 1016.6
20260906033004 72 111 0.0 0.0 0.00 0.12 0.12 99 1016.6
20260906032500 72 111 0.0 0.0 0.00 0.12 0.12 99 1016.5
20260906031954 72 111 0.0 0.0 0.00 0.12 0.12 99 1016.6
20260906031449 72 111 0.0 0.0 0.00 0.12 0.12 99 1016.5
20260906030940 72 111 0.0 0.0 0.00 0.12 0.12 99 1016.5
20260906030433 72 111 0.0 0.0 0.00 0.12 0.12 99 1016.5
20260906025928 72 111 0.0 0.0 0.00 0.12 0.12 99 1016.4
20260906025428 72 111 0.0 0.0 0.00 0.12 0.12 99 1016.4
20260906024927 72 111 0.0 0.0 0.00 0.12 0.12 99 1016.2
20260906024426 71 111 0.0 0.0 0.00 0.12 0.12 99 1016.0
20260906023921 71 111 0.0 0.0 0.00 0.12 0.12 99 1016.2
20260906023418 71 111 0.0 0.0 0.00 0.12 0.12 99 1016.0
20260906022917 72 111 0.0 0.0 0.00 0.12 0.12 99 1016.0
20260906022413 71 111 0.0 0.0 0.00 0.12 0.12 99 1016.0
20260906021908 72 111 0.0 0.0 0.00 0.12 0.12 99 1015.9
20260906021408 72 111 0.0 0.0 0.00 0.12 0.12 99 1015.8
20260906020902 72 111 0.0 0.0 0.00 0.12 0.12 99 1015.7
20260906020357 72 111 0.0 0.0 0.00 0.12 0.12 99 1015.6
20260906015851 72 111 0.0 0.0 0.00 0.12 0.12 99 1015.4
20260906015350 72 111 0.0 0.0 0.00 0.12 0.12 99 1015.4
20260906014844 72 111 0.0 0.0 0.00 0.12 0.12 99 1015.3
20260906014339 73 111 0.0 0.0 0.00 0.12 0.12 98 1015.3
20260906013835 73 111 0.0 0.0 0.00 0.12 0.12 98 1015.2
20260906013331 73 111 0.0 0.0 0.00 0.12 0.12 98 1015.3
20260906012826 73 111 0.0 0.0 0.00 0.12 0.12 98 1015.2
20260906012321 73 111 0.0 0.0 0.00 0.12 0.12 98 1015.2
20260906011816 73 198 0.0 0.0 0.00 0.12 0.12 98 1015.1
20260906011315 73 213 0.0 0.0 0.00 0.12 0.12 98 1014.9
20260906010812 73 222 0.0 0.0 0.00 0.12 0.12 97 1015.1
20260906010308 73 137 0.0 0.0 0.00 0.12 0.12 97 1015.2
20260906005803 73 137 0.0 0.0 0.00 0.12 0.12 97 1015.2
20260906005301 73 138 0.0 0.0 0.00 0.12 0.12 96 1015.3
20260906004801 73 223 0.0 0.0 0.00 0.12 0.12 96 1015.1
20260906004255 73 117 0.0 0.0 0.00 0.12 0.12 96 1015.2
20260906003750 73 220 0.0 0.0 0.00 0.12 0.12 95 1015.2
20260906003246 73 220 0.0 0.0 0.00 0.12 0.12 95 1015.4
20260906002740 74 221 0.0 0.0 0.17 0.12 0.12 94 1015.3
20260906002235 75 193 0.0 0.9 0.59 0.12 0.12 91 1015.3
20260906001730 76 244 0.9 1.7 0.50 0.09 0.09 85 1016.0
20260906001225 79 294 2.6 2.6 0.17 0.03 0.03 76 1016.2
20260906000721 80 267 0.0 0.0 0.05 0.01 0.01 75 1016.2
20260906000216 82 287 1.7 1.7 0.00 0.00 0.00 71 1016.3
20260905235715 82 349 1.7 2.6 0.00 0.00 0.00 67 1016.0
20260905235210 81 95 2.6 4.3 0.00 0.00 0.00 67 1015.9
20260905234706 82 341 3.5 5.2 0.00 0.00 0.00 68 1016.0
20260905234201 85 73 2.6 4.3 0.00 0.00 0.00 65 1016.2
20260905233656 88 286 3.5 5.2 0.00 0.00 0.00 59 1015.9
20260905233155 90 0 0.9 0.9 0.00 0.00 0.00 54 1015.6
20260905232651 91 154 3.5 5.2 0.00 0.00 0.00 52 1015.3
20260905232146 91 54 1.7 1.7 0.00 0.00 0.00 55 1015.3
20260905231641 90 237 0.0 0.0 0.00 0.00 0.00 55 1014.8
20260905231137 89 237 0.0 0.0 0.00 0.00 0.00 58 1014.8
20260905230633 88 237 0.0 0.0 0.00 0.00 0.00 61 1014.8
20260905230131 88 236 0.0 0.9 0.00 0.00 0.00 61 1014.8
20260905225631 89 289 0.9 0.9 0.00 0.00 0.00 59 1015.0
20260905225126 90 284 0.9 0.9 0.00 0.00 0.00 53 1014.8
20260905224625 90 279 0.9 0.9 0.00 0.00 0.00 52 1015.0
20260905224124 89 249 0.0 0.0 0.00 0.00 0.00 56 1015.0
20260905223621 89 249 0.0 0.0 0.00 0.00 0.00 56 1014.8
20260905223118 88 233 0.0 0.0 0.00 0.00 0.00 56 1014.6
20260905222618 88 232 0.0 0.9 0.00 0.00 0.00 55 1014.5
20260905222113 87 235 0.0 0.0 0.00 0.00 0.00 56 1014.6
20260905221609 87 116 0.0 0.0 0.00 0.00 0.00 55 1014.6
20260905221105 87 94 1.7 1.7 0.00 0.00 0.00 54 1014.9
20260905220555 93 127 2.6 4.3 0.00 0.00 0.00 50 1014.8
20260905220051 95 157 0.9 0.9 0.00 0.00 0.00 45 1014.9
20260905215550 96 171 0.9 1.7 0.00 0.00 0.00 44 1014.7
20260905215046 97 223 1.7 1.7 0.00 0.00 0.00 41 1015.0
20260905214542 98 269 0.0 0.0 0.00 0.00 0.00 40 1014.8
20260905214037 99 267 0.0 0.9 0.00 0.00 0.00 38 1014.8
20260905213532 99 334 0.9 0.9 0.00 0.00 0.00 37 1014.7
20260905213028 99 150 0.9 0.9 0.00 0.00 0.00 38 1014.7
20260905212522 99 262 0.0 0.0 0.00 0.00 0.00 37 1014.9
20260905212021 100 232 0.0 0.0 0.00 0.00 0.00 37 1015.0
20260905211517 100 239 0.0 0.0 0.00 0.00 0.00 38 1014.9
20260905211013 100 326 0.0 0.0 0.00 0.00 0.00 37 1014.8
20260905210508 100 326 0.0 0.0 0.00 0.00 0.00 37 1015.0
20260905210009 99 292 0.0 0.0 0.00 0.00 0.00 39 1015.0
20260905205508 100 157 1.7 1.7 0.00 0.00 0.00 38 1015.1
20260905205007 101 307 0.0 0.0 0.00 0.00 0.00 36 1015.3
20260905204502 102 308 0.9 0.9 0.00 0.00 0.00 35 1015.2
20260905204002 101 288 0.9 0.9 0.00 0.00 0.00 36 1015.3
20260905203457 102 273 0.9 0.9 0.00 0.00 0.00 36 1015.3
20260905202953 102 293 0.0 0.9 0.00 0.00 0.00 36 1015.6
20260905202448 101 258 0.9 0.9 0.00 0.00 0.00 36 1015.6
20260905201943 100 19 0.0 0.0 0.00 0.00 0.00 37 1015.4
20260905201438 99 159 0.9 1.7 0.00 0.00 0.00 38 1015.8
20260905200932 99 192 0.9 0.9 0.00 0.00 0.00 38 1015.9
20260905200429 100 250 0.0 0.0 0.00 0.00 0.00 38 1015.9
20260905195926 101 158 0.9 0.9 0.00 0.00 0.00 37 1015.8
20260905195417 99 73 0.9 0.9 0.00 0.00 0.00 38 1016.1
20260905194912 98 232 0.0 0.0 0.00 0.00 0.00 44 1016.0
20260905194412 94 326 0.0 0.0 0.00 0.00 0.00 43 1016.2
20260905193911 93 326 0.0 0.0 0.00 0.00 0.00 49 1016.3
20260905193406 95 326 0.0 0.0 0.00 0.00 0.00 47 1016.2
20260905192902 96 326 0.0 0.0 0.00 0.00 0.00 44 1016.4
20260905192357 96 326 0.0 0.0 0.00 0.00 0.00 44 1016.5
20260905191857 97 326 0.0 0.0 0.00 0.00 0.00 42 1016.5
20260905191356 97 265 0.0 0.0 0.00 0.00 0.00 42 1016.5
20260905190855 97 18 0.9 0.9 0.00 0.00 0.00 41 1016.8
20260905190348 98 319 0.0 0.0 0.00 0.00 0.00 41 1016.8
20260905185847 100 289 0.0 0.0 0.00 0.00 0.00 39 1016.8
20260905185343 102 278 1.7 2.6 0.00 0.00 0.00 36 1016.9
20260905184841 99 71 0.0 0.0 0.00 0.00 0.00 38 1016.7
20260905184340 98 185 0.0 0.0 0.00 0.00 0.00 40 1017.0
20260905183834 97 291 0.0 0.9 0.00 0.00 0.00 42 1016.9
20260905183330 98 269 0.9 0.9 0.00 0.00 0.00 41 1017.1
20260905182830 99 265 1.7 1.7 0.00 0.00 0.00 40 1017.1
20260905182329 99 289 0.0 0.0 0.00 0.00 0.00 41 1017.2
20260905181825 100 167 0.9 0.9 0.00 0.00 0.00 41 1017.3
20260905181319 101 263 0.0 0.0 0.00 0.00 0.00 40 1017.4
20260905180818 101 52 0.0 0.0 0.00 0.00 0.00 38 1017.6
20260905180313 100 71 0.0 0.9 0.00 0.00 0.00 40 1017.5
20260905175808 99 128 0.0 0.9 0.00 0.00 0.00 41 1017.5
20260905175306 99 319 0.9 0.9 0.00 0.00 0.00 41 1017.7
20260905174758 101 257 0.0 0.0 0.00 0.00 0.00 39 1017.7
20260905174254 101 16 0.9 1.7 0.00 0.00 0.00 39 1017.6
20260905173749 101 200 0.9 0.9 0.00 0.00 0.00 39 1018.0
20260905173245 101 300 0.0 0.9 0.00 0.00 0.00 37 1017.8
20260905172744 101 269 0.9 0.9 0.00 0.00 0.00 39 1018.2
20260905172243 99 227 0.0 0.9 0.00 0.00 0.00 41 1018.1
20260905171740 100 131 1.7 1.7 0.00 0.00 0.00 40 1018.1
20260905171236 99 269 0.9 0.9 0.00 0.00 0.00 42 1018.2
20260905170732 98 257 1.7 1.7 0.00 0.00 0.00 42 1018.3
20260905170228 99 239 0.0 0.9 0.00 0.00 0.00 42 1018.3
20260905165727 98 157 0.0 0.9 0.00 0.00 0.00 41 1018.4